| time (UTC) | temp F | wind direction | speed knots | gust knots | rain 1hr in | rain 24hr in | rain mn in | humidity % | barometer mb |
| 20260506072703 | 46 | 53 | 5.2 | 9.6 | 0.00 | 0.01 | 0.00 | 69 | |
| 20260506071803 | 46 | 20 | 4.3 | 10.4 | 0.00 | 0.01 | 0.00 | 68 | |
| 20260506070903 | 46 | 345 | 1.7 | 5.2 | 0.00 | 0.01 | 0.00 | 71 | |
| 20260506061823 | 41 | 5 | 2.6 | 4.3 | 0.00 | 0.01 | 0.00 | 78 | |
| 20260506060903 | 40 | 12 | 0.9 | 4.3 | 0.00 | 0.01 | 0.00 | 78 | |
| 20260506050903 | 38 | 0 | 0.0 | 0.0 | 0.00 | 0.01 | 0.00 | 81 | |
| 20260506044503 | 38 | 86 | 0.9 | 3.5 | 0.00 | 0.01 | 0.00 | 82 | |
| 20260506043603 | 38 | 86 | 1.7 | 3.5 | 0.00 | 0.01 | 0.00 | 82 | |
| 20260506042703 | 38 | 86 | 0.0 | 0.9 | 0.00 | 0.01 | 0.00 | 82 | |
| 20260506041803 | 38 | 86 | 0.9 | 1.7 | 0.00 | 0.01 | 0.00 | 82 | |
| 20260506040903 | 38 | 86 | 0.9 | 3.5 | 0.00 | 0.01 | 0.00 | 82 | |
| 20260506040003 | 38 | 86 | 1.7 | 3.5 | 0.00 | 0.01 | 0.00 | 82 | |
| 20260506035403 | 38 | 85 | 1.7 | 4.3 | 0.00 | 0.01 | 0.00 | 82 | |
| 20260506034503 | 38 | 87 | 1.7 | 5.2 | 0.00 | 0.01 | 0.00 | 82 | |
| 20260506033624 | 38 | 83 | 3.5 | 6.1 | 0.00 | 0.01 | 0.00 | 82 | |
| 20260506032703 | 39 | 74 | 3.5 | 5.2 | 0.00 | 0.01 | 0.00 | 82 | |
| 20260506031824 | 39 | 81 | 2.6 | 5.2 | 0.00 | 0.01 | 0.00 | 83 | |
| 20260506030903 | 39 | 65 | 3.5 | 6.1 | 0.00 | 0.01 | 0.00 | 83 | |
| 20260506030003 | 39 | 67 | 3.5 | 7.0 | 0.00 | 0.01 | 0.00 | 83 | |
| 20260506025403 | 39 | 69 | 3.5 | 7.0 | 0.00 | 0.01 | 0.00 | 83 | |
| 20260506024503 | 39 | 62 | 3.5 | 6.1 | 0.00 | 0.01 | 0.00 | 84 | |
| 20260506023603 | 39 | 36 | 3.5 | 5.2 | 0.00 | 0.01 | 0.00 | 84 | |
| 20260506022703 | 39 | 43 | 3.5 | 6.1 | 0.00 | 0.01 | 0.00 | 84 | |
| 20260506021803 | 39 | 38 | 3.5 | 7.0 | 0.00 | 0.01 | 0.00 | 84 | |
| 20260506020903 | 39 | 34 | 3.5 | 6.1 | 0.00 | 0.01 | 0.00 | 84 | |
| 20260506020003 | 39 | 22 | 2.6 | 5.2 | 0.00 | 0.01 | 0.00 | 84 | |
| 20260506015404 | 39 | 24 | 2.6 | 4.3 | 0.00 | 0.01 | 0.00 | 84 | |
| 20260506014524 | 39 | 38 | 2.6 | 4.3 | 0.00 | 0.01 | 0.00 | 84 | |
| 20260506013624 | 39 | 41 | 2.6 | 5.2 | 0.00 | 0.01 | 0.00 | 84 | |
| 20260506012703 | 40 | 45 | 3.5 | 5.2 | 0.00 | 0.01 | 0.00 | 83 | |
| 20260506011803 | 40 | 52 | 3.5 | 5.2 | 0.00 | 0.01 | 0.00 | 83 | |
| 20260506010903 | 40 | 41 | 3.5 | 6.1 | 0.00 | 0.01 | 0.00 | 83 | |
| 20260506010024 | 40 | 359 | 2.6 | 4.3 | 0.00 | 0.01 | 0.00 | 83 | |
| 20260506005403 | 40 | 356 | 1.7 | 4.3 | 0.00 | 0.01 | 0.00 | 83 | |
| 20260506004504 | 40 | 43 | 0.9 | 4.3 | 0.00 | 0.01 | 0.00 | 82 | |
| 20260506003603 | 40 | 53 | 1.7 | 4.3 | 0.00 | 0.01 | 0.00 | 82 | |
| 20260506002703 | 40 | 79 | 3.5 | 10.4 | 0.00 | 0.01 | 0.00 | 82 | |
| 20260506001803 | 40 | 73 | 4.3 | 7.0 | 0.00 | 0.01 | 0.00 | 82 | |
| 20260506000924 | 40 | 72 | 3.5 | 9.6 | 0.00 | 0.01 | 0.00 | 82 | |
| 20260506000024 | 41 | 65 | 3.5 | 10.4 | 0.00 | 0.01 | 0.00 | 81 | |
| 20260505235403 | 41 | 64 | 3.5 | 7.0 | 0.00 | 0.01 | 0.00 | 81 | |
| 20260505234503 | 41 | 64 | 4.3 | 7.0 | 0.00 | 0.01 | 0.00 | 81 | |
| 20260505233623 | 41 | 67 | 4.3 | 8.7 | 0.00 | 0.01 | 0.00 | 82 | |
| 20260505232703 | 41 | 73 | 5.2 | 9.6 | 0.00 | 0.01 | 0.00 | 81 | |
| 20260505231823 | 41 | 69 | 4.3 | 9.6 | 0.00 | 0.01 | 0.00 | 81 | |
| 20260505230902 | 41 | 70 | 4.3 | 11.3 | 0.00 | 0.01 | 0.00 | 81 | |
| 20260505230002 | 41 | 69 | 5.2 | 10.4 | 0.00 | 0.01 | 0.00 | 81 | |
| 20260505225402 | 41 | 66 | 4.3 | 9.6 | 0.00 | 0.01 | 0.01 | 81 | |
| 20260505224502 | 41 | 54 | 6.1 | 12.2 | 0.00 | 0.01 | 0.01 | 81 | |
| 20260505223623 | 41 | 69 | 4.3 | 10.4 | 0.00 | 0.01 | 0.01 | 82 | |
| 20260505222723 | 41 | 63 | 3.5 | 7.0 | 0.00 | 0.01 | 0.01 | 82 | |
| 20260505221802 | 41 | 43 | 3.5 | 6.1 | 0.00 | 0.01 | 0.01 | 81 | |
| 20260505220902 | 41 | 54 | 3.5 | 8.7 | 0.00 | 0.01 | 0.01 | 81 | |
| 20260505220002 | 41 | 70 | 3.5 | 10.4 | 0.00 | 0.01 | 0.01 | 81 | |
| 20260505215423 | 41 | 64 | 6.1 | 14.8 | 0.00 | 0.01 | 0.01 | 81 | |
| 20260505214502 | 41 | 61 | 7.8 | 13.9 | 0.00 | 0.01 | 0.01 | 81 | |
| 20260505213602 | 41 | 50 | 4.3 | 13.9 | 0.00 | 0.01 | 0.01 | 81 | |
| 20260505212702 | 41 | 64 | 6.1 | 13.9 | 0.00 | 0.01 | 0.01 | 81 | |
| 20260505211802 | 41 | 58 | 7.0 | 14.8 | 0.00 | 0.01 | 0.01 | 81 | |
| 20260505210902 | 42 | 58 | 8.7 | 16.5 | 0.00 | 0.01 | 0.01 | 81 | |
| 20260505210002 | 42 | 71 | 7.8 | 16.5 | 0.00 | 0.01 | 0.01 | 80 | |
| 20260505205423 | 42 | 70 | 8.7 | 14.8 | 0.00 | 0.01 | 0.01 | 80 | |
| 20260505204502 | 42 | 67 | 9.6 | 16.5 | 0.00 | 0.01 | 0.01 | 80 | |
| 20260505203602 | 42 | 76 | 7.8 | 13.9 | 0.00 | 0.01 | 0.01 | 79 | |
| 20260505202702 | 43 | 76 | 7.8 | 13.9 | 0.00 | 0.01 | 0.01 | 79 | |
| 20260505201802 | 43 | 74 | 7.8 | 17.4 | 0.00 | 0.01 | 0.01 | 78 | |
| 20260505200902 | 43 | 65 | 8.7 | 15.6 | 0.00 | 0.01 | 0.01 | 78 | |
| 20260505200002 | 43 | 65 | 10.4 | 16.5 | 0.00 | 0.01 | 0.01 | 78 | |
| 20260505195402 | 44 | 69 | 9.6 | 16.5 | 0.00 | 0.01 | 0.01 | 78 | |
| 20260505194523 | 44 | 65 | 7.8 | 15.6 | 0.00 | 0.01 | 0.01 | 78 | |
| 20260505193602 | 44 | 62 | 9.6 | 17.4 | 0.00 | 0.01 | 0.01 | 78 | |
| 20260505192702 | 44 | 68 | 8.7 | 17.4 | 0.00 | 0.01 | 0.01 | 77 | |
| 20260505191802 | 44 | 70 | 9.6 | 17.4 | 0.00 | 0.01 | 0.01 | 77 | |
| 20260505190902 | 45 | 70 | 9.6 | 17.4 | 0.00 | 0.01 | 0.01 | 76 | |
| 20260505190002 | 45 | 67 | 12.2 | 20.9 | 0.00 | 0.01 | 0.01 | 76 | |
| 20260505185402 | 45 | 70 | 11.3 | 20.9 | 0.00 | 0.01 | 0.01 | 76 | |
| 20260505184502 | 45 | 70 | 7.8 | 16.5 | 0.00 | 0.01 | 0.01 | 75 | |
| 20260505183602 | 45 | 65 | 8.7 | 16.5 | 0.00 | 0.01 | 0.01 | 75 | |
| 20260505182702 | 45 | 64 | 12.2 | 20.0 | 0.00 | 0.01 | 0.01 | 74 | |
| 20260505181802 | 46 | 67 | 11.3 | 20.9 | 0.00 | 0.01 | 0.01 | 74 | |
| 20260505180902 | 46 | 63 | 11.3 | 21.7 | 0.00 | 0.01 | 0.01 | 74 | |
| 20260505180002 | 46 | 53 | 9.6 | 20.0 | 0.00 | 0.01 | 0.01 | 74 | |
| 20260505175402 | 46 | 60 | 11.3 | 20.0 | 0.00 | 0.01 | 0.01 | 73 | |
| 20260505174502 | 47 | 65 | 9.6 | 17.4 | 0.00 | 0.01 | 0.01 | 72 | |
| 20260505173602 | 47 | 66 | 12.2 | 21.7 | 0.00 | 0.01 | 0.01 | 70 | |
| 20260505172723 | 47 | 67 | 10.4 | 19.1 | 0.00 | 0.01 | 0.01 | 71 | |
| 20260505171802 | 47 | 74 | 12.2 | 21.7 | 0.00 | 0.01 | 0.01 | 70 | |
| 20260505170902 | 47 | 68 | 13.0 | 24.3 | 0.00 | 0.01 | 0.01 | 69 | |
| 20260505170002 | 47 | 68 | 13.0 | 20.9 | 0.00 | 0.01 | 0.01 | 70 | |
| 20260505165402 | 48 | 64 | 10.4 | 20.9 | 0.00 | 0.01 | 0.01 | 70 | |
| 20260505164502 | 48 | 60 | 12.2 | 20.9 | 0.00 | 0.01 | 0.01 | 71 | |
| 20260505163602 | 47 | 68 | 13.0 | 26.1 | 0.00 | 0.01 | 0.01 | 71 | |
| 20260505162723 | 47 | 68 | 13.0 | 26.9 | 0.00 | 0.01 | 0.01 | 72 | |
| 20260505161802 | 48 | 62 | 12.2 | 20.9 | 0.00 | 0.01 | 0.01 | 72 | |
| 20260505160923 | 48 | 64 | 12.2 | 22.6 | 0.00 | 0.01 | 0.01 | 73 | |
| 20260505152723 | 49 | 65 | 12.2 | 20.9 | 0.00 | 0.01 | 0.01 | 75 | |
| 20260505151802 | 49 | 60 | 13.0 | 21.7 | 0.00 | 0.01 | 0.01 | 74 | |
| 20260505150902 | 48 | 52 | 12.2 | 19.1 | 0.00 | 0.01 | 0.01 | 75 | |
| 20260505124502 | 51 | 45 | 8.7 | 17.4 | 0.00 | 0.00 | 0.00 | 72 | |
| 20260505123603 | 52 | 56 | 6.1 | 17.4 | 0.00 | 0.00 | 0.00 | 71 | |
| 20260505122723 | 52 | 76 | 6.1 | 12.2 | 0.00 | 0.00 | 0.00 | 70 | |
| 20260505121803 | 53 | 91 | 6.1 | 13.9 | 0.00 | 0.00 | 0.00 | 69 | |
| 20260505120923 | 53 | 110 | 3.5 | 9.6 | 0.00 | 0.00 | 0.00 | 74 | |
| 20260505120003 | 51 | 111 | 2.6 | 7.0 | 0.00 | 0.00 | 0.00 | 78 | |
| 20260505115402 | 51 | 87 | 3.5 | 7.0 | 0.00 | 0.00 | 0.00 | 77 | |
| 20260505114502 | 51 | 343 | 4.3 | 9.6 | 0.00 | 0.00 | 0.00 | 77 | |
| 20260505113603 | 51 | 263 | 4.3 | 7.0 | 0.00 | 0.00 | 0.00 | 75 | |
| 20260505112703 | 51 | 269 | 5.2 | 7.0 | 0.00 | 0.00 | 0.00 | 76 | |
| 20260505111802 | 51 | 274 | 4.3 | 6.1 | 0.00 | 0.00 | 0.00 | 73 | |
| 20260505110903 | 52 | 339 | 1.7 | 6.1 | 0.00 | 0.00 | 0.00 | 77 | |
| 20260505101802 | 52 | 314 | 2.6 | 6.1 | 0.00 | 0.00 | 0.00 | 72 | |
| 20260505100903 | 53 | 276 | 3.5 | 8.7 | 0.00 | 0.00 | 0.00 | 73 | |
| 20260505100024 | 52 | 285 | 4.3 | 9.6 | 0.00 | 0.00 | 0.00 | 74 | |
| 20260505095403 | 51 | 284 | 3.5 | 10.4 | 0.00 | 0.00 | 0.00 | 77 | |
| 20260505094503 | 51 | 298 | 4.3 | 8.7 | 0.00 | 0.00 | 0.00 | 80 | |
| 20260505093602 | 50 | 266 | 3.5 | 6.1 | 0.00 | 0.00 | 0.00 | 80 | |
| 20260505092702 | 49 | 275 | 4.3 | 8.7 | 0.00 | 0.00 | 0.00 | 78 | |
| 20260505091802 | 50 | 273 | 2.6 | 6.1 | 0.00 | 0.00 | 0.00 | 79 | |
| 20260505090903 | 50 | 274 | 3.5 | 6.1 | 0.00 | 0.00 | 0.00 | 78 | |
| 20260505090005 | 50 | 264 | 2.6 | 6.1 | 0.00 | 0.00 | 0.00 | 83 | |
| 20260505085423 | 49 | 249 | 2.6 | 6.1 | 0.00 | 0.00 | 0.00 | 83 | |
| 20260505084503 | 48 | 233 | 4.3 | 7.0 | 0.00 | 0.00 | 0.00 | 82 | |
| 20260505083603 | 48 | 240 | 3.5 | 7.0 | 0.00 | 0.00 | 0.00 | 84 | |
| 20260505082703 | 48 | 244 | 3.5 | 6.1 | 0.00 | 0.00 | 0.00 | 84 | |
| 20260505081803 | 47 | 257 | 3.5 | 7.0 | 0.00 | 0.00 | 0.00 | 85 | |
| 20260505080902 | 47 | 243 | 4.3 | 6.1 | 0.00 | 0.00 | 0.00 | 86 | |
| 20260505080024 | 47 | 238 | 3.5 | 7.0 | 0.00 | 0.00 | 0.00 | 86 | |
| 20260505075403 | 47 | 246 | 2.6 | 4.3 | 0.00 | 0.00 | 0.00 | 86 | |
| 20260505074503 | 47 | 240 | 2.6 | 5.2 | 0.00 | 0.00 | 0.00 | 86 | |
| 20260505073603 | 46 | 238 | 2.6 | 5.2 | 0.00 | 0.00 | 0.00 | 87 |